Temperature
18 15 14 14 14 16 16 16 16 15 13 11 10 11 12 13 10 10 11 12 12 13 14 12 11 10 9 8 8 7 7 6 5 5 4 4 3 2 1 1 0 -0 -1 -2
15 15 16 16 16 16 16 16 16 15 13 12 11 11 12 12 10 11 11 12 13 14 13 13 12 10 10 9 9 8 7 6 6 5 4 4 3 2 2 1 0 -0 -1 -2
17 16 17 17 17 17 16 16 15 15 14 13 12 12 13 13 12 12 13 14 15 15 15 14 13 12 11 10 10 9 8 7 6 5 4 3 3 2 2 1 0 -1 -1 -2
17 16 16 16 16 16 15 15 15 15 13 11 13 12 13 13 12 11 13 14 15 16 15 15 14 13 13 12 11 10 8 7 6 5 4 3 3 2 2 1 0 -1 -1 -2
16 15 15 15 16 16 15 15 14 14 13 11 11 12 13 13 12 12 13 16 18 18 17 16 16 15 14 13 11 10 9 7 6 5 4 3 3 2 1 1 0 -1 -1 -2
15 16 15 15 15 15 14 14 13 10 10 11 11 11 12 11 12 14 14 18 20 19 18 17 16 15 14 13 12 10 9 7 6 5 4 3 3 2 1 1 -0 -1 -1 -2
16 15 15 15 15 14 14 13 13 13 11 12 12 12 13 13 12 13 16 20 20 20 19 18 17 15 15 14 12 11 9 8 6 5 4 3 3 2 1 1 -0 -1 -1 -2
15 14 14 14 14 13 12 13 13 14 12 12 13 12 14 14 14 16 18 20 20 20 19 18 17 16 15 14 13 11 10 8 7 5 4 3 2 2 1 0 -0 -1 -2 -2
14 14 14 14 14 14 14 12 11 11 12 11 11 11 12 14 14 14 16 17 19 19 19 18 18 16 15 14 13 12 11 9 7 5 4 3 2 2 1 0 -1 -1 -2 -3
15 14 14 13 13 13 13 12 10 11 12 11 11 11 13 15 14 13 12 15 19 19 19 18 17 17 16 14 13 11 10 8 7 5 4 3 2 2 1 -0 -1 -1 -2 -3
14 13 13 12 11 12 11 12 11 10 10 10 11 13 13 14 14 13 14 17 19 20 19 19 18 17 16 14 13 11 10 8 6 5 4 3 2 1 1 -0 -1 -2 -2 -3
13 11 11 12 12 11 11 11 10 11 11 9 8 13 14 12 12 13 15 18 19 20 19 18 18 17 16 14 13 12 10 8 6 5 3 3 2 1 0 -0 -1 -2 -2 -3
12 11 12 13 13 12 12 11 10 11 10 9 9 14 14 13 14 15 16 17 19 19 19 18 17 17 16 15 13 12 10 8 6 5 3 2 2 1 0 -0 -1 -2 -2 -3
12 10 11 13 14 13 12 12 11 11 10 9 10 14 16 15 14 15 18 18 18 18 18 18 17 17 16 15 13 12 10 8 6 4 3 2 2 1 0 -1 -1 -2 -2 -3
10 9 9 10 11 11 11 12 11 11 12 12 14 14 16 17 14 15 17 17 17 17 18 17 17 17 16 15 14 12 10 8 6 4 3 2 2 1 -0 -1 -1 -2 -2 -3
8 9 9 10 11 10 10 11 12 12 12 12 13 14 16 16 15 14 15 16 16 17 17 17 17 16 16 15 14 13 11 9 7 5 4 3 2 1 -0 -1 -2 -2 -2 -3
7 7 8 8 10 10 10 12 13 11 10 11 12 14 14 13 12 13 15 16 16 17 17 17 17 16 16 15 14 13 12 10 7 5 4 2 1 1 -0 -1 -2 -2 -2 -3
7 7 7 7 10 10 13 13 12 12 12 11 12 13 13 12 14 15 16 16 17 17 17 17 16 16 15 15 14 13 11 9 7 6 4 3 2 1 -0 -1 -1 -2 -3 -3
7 8 8 6 7 9 10 12 12 11 12 12 12 13 13 13 12 15 18 18 17 17 17 16 15 15 14 14 13 12 11 9 8 6 4 3 2 1 -0 -1 -1 -2 -3 -3
6 7 7 6 6 8 12 13 13 13 12 14 12 12 12 11 11 14 18 17 17 16 16 15 15 14 14 14 12 11 11 9 8 7 5 4 2 1 -0 -1 -1 -2 -3 -3
6 6 5 6 6 8 10 12 13 13 14 15 15 14 13 11 13 16 16 16 16 15 15 14 14 14 14 13 12 11 10 9 9 7 5 3 2 1 -0 -1 -2 -2 -3 -3
6 5 4 5 5 8 10 10 11 13 15 15 15 15 15 14 15 15 15 15 15 14 14 13 13 13 13 12 11 10 10 9 8 6 4 3 2 0 -0 -1 -2 -2 -2 -3
6 7 7 7 10 12 12 12 14 14 14 15 14 14 14 14 14 14 14 14 13 13 13 13 12 12 12 12 11 10 10 8 6 5 4 3 1 0 -1 -1 -2 -2 -2 -3
7 7 7 7 7 10 12 13 14 14 13 13 13 13 13 13 13 13 13 12 12 12 12 12 12 11 12 11 11 10 8 7 5 4 3 2 1 0 -1 -1 -2 -2 -2 -2
9 9 8 8 8 10 12 13 13 13 12 12 12 12 12 11 11 11 11 11 11 11 11 11 11 11 11 10 10 9 8 6 5 3 2 2 1 0 -1 -1 -1 -2 -2 -2
8 8 8 9 10 10 11 11 11 11 11 10 10 10 10 10 10 10 10 10 9 10 10 10 10 10 10 10 9 8 7 6 4 2 1 1 0 -0 -1 -1 -2 -2 -3 -3
Wind_Speed
2 3 4 8 8 6 4 5 6 6 5 8 11 17 18 10 12 15 14 14 17 21 17 13 14 15 15 15 16 17 14 12 9 5 4 3 3 3 5 8 11 11 11 10
4 4 7 5 5 4 3 4 5 4 3 6 8 14 14 10 11 14 16 18 19 17 13 14 14 16 18 19 19 17 17 15 12 7 5 4 4 3 5 7 8 10 10 10
6 5 3 3 4 4 3 4 4 4 3 4 6 11 9 6 6 9 11 13 13 18 18 15 17 19 19 21 21 20 18 16 13 9 5 3 2 1 2 3 4 8 9 10
4 4 3 4 5 5 4 2 1 1 2 5 2 6 9 7 7 9 13 14 16 17 16 15 17 18 21 22 19 17 17 15 13 11 9 8 6 6 6 4 4 7 9 9
5 5 6 7 6 6 5 2 1 0 1 5 4 4 11 4 8 13 14 16 18 17 16 16 18 21 20 18 17 16 16 15 14 13 12 9 8 6 4 4 5 5 7 9
6 3 5 6 1 2 4 4 4 5 4 5 7 8 9 7 10 10 11 13 16 16 15 15 13 13 13 13 15 15 17 16 15 14 12 12 11 9 7 7 6 5 4 6
5 4 3 3 3 2 4 4 4 4 2 7 4 6 12 12 11 12 13 13 14 13 13 13 13 14 15 17 18 17 18 17 16 15 13 13 12 11 10 9 8 7 5 5
4 7 5 5 7 6 6 7 6 5 6 6 5 8 11 11 10 11 12 11 10 11 11 13 14 15 16 18 19 19 20 17 17 16 14 12 11 9 8 9 7 7 6 6
6 6 2 3 3 6 5 6 7 5 4 6 8 9 12 8 8 8 10 9 12 12 12 13 12 13 15 18 20 21 20 17 17 16 13 12 11 10 9 9 8 6 6 7
7 6 4 1 1 3 3 5 5 5 4 7 8 8 7 9 10 11 10 12 14 12 11 12 11 14 15 16 16 16 18 18 15 15 14 12 11 11 9 8 9 8 8 8
5 5 4 1 7 9 6 5 6 5 4 6 6 9 8 10 10 13 16 15 14 14 14 14 13 13 12 11 14 16 16 15 14 15 13 11 11 10 9 9 9 9 7 7
5 4 6 9 6 5 8 9 9 6 7 6 5 11 9 11 11 11 14 13 12 12 11 11 11 10 11 14 15 17 17 16 16 14 13 12 10 10 9 9 9 8 8 7
6 4 4 7 2 2 5 6 8 5 3 6 7 13 6 7 8 8 10 11 11 11 11 9 8 11 14 15 16 17 17 17 14 13 13 12 11 11 11 10 9 8 8 8
5 6 8 10 9 6 7 6 8 8 7 9 15 22 22 19 14 11 11 11 11 11 11 10 10 12 13 14 15 16 17 15 15 14 14 14 14 13 11 9 8 8 8 7
5 6 8 11 11 7 9 13 11 14 15 16 20 23 30 25 13 10 11 11 11 12 11 12 13 13 12 13 15 16 16 16 16 15 15 15 13 11 9 9 8 8 7 8
4 5 4 7 10 11 11 17 21 19 16 20 26 28 29 21 10 10 12 11 12 13 12 12 12 12 14 16 17 16 17 17 16 17 16 13 11 11 10 10 9 8 8 8
7 7 4 7 6 7 10 15 18 11 11 11 19 22 20 15 14 12 11 11 12 13 13 13 13 14 15 16 17 19 18 16 17 17 15 14 13 12 12 11 9 9 8 8
10 8 5 5 2 12 11 6 9 11 14 15 17 20 16 13 9 9 10 12 13 13 13 12 11 12 12 13 14 14 14 16 17 16 15 14 14 13 11 10 10 9 7 7
7 8 6 4 6 12 10 9 7 8 11 12 18 21 17 7 6 10 10 9 12 12 12 11 10 10 9 11 12 13 15 16 17 18 17 16 15 14 12 12 12 9 7 8
3 4 5 5 6 10 9 5 2 1 10 9 8 12 8 3 3 7 8 6 8 10 10 10 9 7 9 9 11 14 16 17 20 20 17 16 15 14 14 13 11 8 8 8
4 4 7 9 10 12 10 4 4 5 9 5 3 4 3 6 8 9 10 10 11 12 12 11 9 9 10 8 12 15 17 21 19 14 14 14 15 15 13 11 10 8 8 7
11 9 9 7 8 13 7 7 9 9 6 7 8 7 7 9 12 13 13 13 13 13 13 11 10 12 9 9 13 16 20 17 12 13 15 15 15 13 12 11 10 9 8 7
9 10 7 12 12 7 5 10 8 6 9 10 9 11 11 11 13 14 13 13 13 13 13 10 11 12 9 11 15 19 17 12 14 15 16 15 15 13 12 12 11 8 8 7
8 7 7 9 12 12 11 10 12 13 13 13 13 14 13 14 16 16 15 13 12 12 12 10 10 11 13 11 16 18 11 13 15 16 16 14 14 14 13 11 10 9 8 8
9 7 11 18 14 13 12 11 11 12 13 14 15 14 13 13 15 14 13 13 12 11 10 9 10 12 15 11 14 14 11 14 16 15 14 14 14 13 13 12 11 11 9 9
12 15 21 27 18 17 17 14 16 17 16 16 16 14 13 11 12 12 11 11 11 12 11 11 11 13 14 11 12 12 13 15 16 14 14 12 12 11 11 10 9 14 13 14
Wind_Direction
91 89 214 218 205 216 223 234 260 257 196 191 238 261 271 229 217 233 231 226 228 232 229 214 206 196 188 187 186 185 182 180 170 162 169 183 208 216 235 247 247 238 236 245
39 252 227 196 204 226 240 272 272 281 200 211 272 276 270 231 213 224 227 228 230 236 230 217 204 196 194 192 191 189 188 184 182 178 168 171 172 195 224 239 238 232 238 250
225 237 190 193 226 240 267 242 252 274 337 267 304 300 281 254 223 235 231 230 231 230 230 218 208 203 199 198 195 193 190 186 184 174 154 146 143 201 228 225 226 234 245 257
239 223 196 210 236 195 252 206 183 298 339 293 219 287 287 262 259 249 240 234 236 235 230 219 210 206 205 203 195 192 187 185 182 173 173 173 185 202 215 212 219 242 253 257
258 204 202 220 231 193 213 162 150 150 207 302 238 222 280 274 259 254 243 235 236 234 226 222 213 210 207 198 191 188 183 184 181 180 181 182 196 205 212 219 234 243 251 253
243 214 208 212 169 139 122 69 54 52 71 285 225 189 272 235 219 238 241 233 232 232 226 225 217 204 198 187 186 184 184 187 183 183 184 188 196 202 210 222 233 240 240 250
290 259 227 155 147 71 105 88 351 324 317 254 226 210 249 245 224 219 224 229 229 226 221 219 209 199 194 188 189 187 187 189 187 187 191 195 197 198 209 216 224 229 236 241
285 286 226 201 191 185 186 157 179 238 252 285 284 237 253 256 249 234 234 237 236 229 221 217 210 202 196 193 190 190 192 192 189 192 197 197 196 198 209 212 213 220 227 237
217 264 208 181 190 180 188 205 181 165 261 269 267 276 296 266 260 236 232 236 239 234 226 222 212 201 197 194 194 193 193 193 193 195 195 197 197 199 206 209 212 221 228 242
188 254 267 193 49 249 209 155 118 158 236 264 280 271 252 271 254 244 238 236 242 243 239 231 218 208 203 199 195 192 194 195 193 193 195 201 200 202 204 205 215 222 230 241
179 219 276 272 212 205 169 192 189 184 194 203 266 266 231 240 246 237 235 234 237 237 234 230 222 211 200 190 190 194 196 195 194 195 196 195 196 199 201 208 218 224 231 235
177 156 256 252 238 196 189 199 168 187 236 213 234 267 258 251 261 248 247 246 245 243 239 231 218 198 193 196 196 198 199 199 198 195 194 198 194 194 202 213 220 223 231 234
150 144 302 322 304 220 228 219 196 185 187 211 229 267 272 284 284 262 255 263 263 259 253 239 213 204 205 204 202 202 202 202 196 191 193 196 198 199 207 214 218 221 228 236
130 182 202 230 240 203 223 227 202 187 217 241 237 258 273 274 272 276 270 265 265 260 252 239 226 219 214 209 205 204 204 199 193 192 195 201 204 205 207 210 213 219 225 237
147 225 240 254 264 249 243 250 232 220 226 240 256 257 266 272 271 257 260 268 271 265 254 240 233 228 218 213 210 207 204 198 194 194 199 206 203 199 200 205 212 218 228 243
175 222 259 271 261 251 254 256 251 244 238 243 258 266 266 276 279 267 266 266 267 264 258 250 240 231 223 217 213 208 205 199 193 197 203 201 192 194 201 207 212 221 232 243
191 193 222 265 281 308 264 239 240 230 217 218 247 258 271 277 271 264 264 261 257 261 263 258 247 235 229 220 212 209 205 194 195 200 200 195 193 198 204 208 212 223 232 242
176 175 203 261 300 245 248 234 226 239 249 230 246 260 267 263 277 269 257 257 266 266 266 265 256 244 234 220 210 206 195 193 198 200 198 195 193 198 199 205 217 225 229 238
178 173 201 215 246 269 287 272 221 222 271 242 244 262 271 295 317 293 269 241 246 260 266 268 263 253 238 217 202 192 195 196 200 203 200 196 192 194 197 209 219 223 225 237
101 153 191 205 228 253 256 258 170 140 286 280 247 263 286 85 318 282 294 302 282 280 278 277 277 260 240 218 188 192 200 201 208 206 201 193 190 193 200 209 215 216 221 235
168 198 208 223 237 261 261 248 145 220 257 308 331 287 277 213 236 263 296 297 289 287 284 281 272 257 245 206 187 203 208 213 212 198 190 188 191 195 199 202 207 211 220 230
190 192 207 197 222 256 237 160 198 234 301 317 317 310 290 267 270 279 284 285 287 289 287 281 270 264 247 199 197 212 220 217 192 184 187 189 190 191 194 196 204 208 214 226
210 207 209 207 229 261 200 216 252 293 292 293 297 298 296 287 284 286 285 285 286 283 282 276 263 266 253 211 206 222 225 196 182 185 190 189 187 190 189 192 198 203 208 220
242 227 235 253 257 268 274 263 265 265 266 277 284 289 292 286 286 289 289 287 287 285 282 279 271 267 264 230 219 228 215 183 185 191 192 188 187 189 191 192 196 200 206 213
240 257 262 268 273 282 264 265 280 295 298 296 296 294 290 287 288 286 289 289 288 288 287 283 272 268 269 251 231 224 200 184 190 193 192 190 191 189 191 196 200 201 206 205
235 246 259 269 272 273 280 282 288 291 293 298 301 301 298 289 286 292 294 293 294 295 295 293 284 277 276 263 242 219 198 191 191 193 193 191 190 189 190 192 201 216 213 223
Height
1564 1568 1571 1569 1569 1567 1566 1568 1568 1564 1562 1566 1565 1557 1547 1546 1546 1544 1543 1543 1542 1540 1542 1545 1546 1547 1548 1548 1549 1549 1550 1551 1552 1553 1553 1552 1551 1549 1547 1545 1543 1540 1537 1534
1568 1569 1563 1562 1563 1564 1564 1566 1566 1563 1562 1564 1562 1554 1540 1536 1536 1534 1534 1534 1534 1534 1536 1538 1539 1540 1540 1541 1541 1542 1543 1544 1546 1547 1548 1547 1546 1544 1542 1540 1538 1535 1533 1530
1565 1563 1560 1561 1562 1563 1563 1565 1564 1563 1562 1562 1563 1553 1537 1530 1530 1529 1528 1527 1528 1528 1528 1530 1532 1532 1533 1532 1533 1534 1535 1537 1539 1541 1542 1541 1540 1538 1537 1535 1533 1530 1528 1525
1561 1560 1560 1561 1561 1560 1565 1561 1561 1562 1567 1570 1565 1568 1540 1530 1528 1523 1521 1520 1519 1520 1521 1523 1524 1524 1524 1524 1526 1527 1529 1530 1532 1534 1534 1534 1534 1533 1532 1530 1528 1525 1523 1520
1561 1559 1560 1561 1559 1557 1559 1559 1561 1563 1566 1571 1566 1568 1543 1530 1527 1518 1512 1512 1512 1513 1515 1515 1516 1516 1517 1519 1519 1520 1522 1523 1525 1526 1527 1528 1527 1527 1526 1524 1522 1520 1518 1515
1558 1556 1556 1556 1556 1556 1558 1561 1564 1569 1573 1574 1561 1566 1548 1529 1517 1509 1504 1504 1505 1507 1508 1509 1510 1511 1511 1512 1512 1513 1514 1515 1517 1518 1520 1521 1521 1520 1519 1518 1516 1514 1512 1510
1559 1556 1554 1554 1557 1559 1560 1568 1575 1572 1577 1568 1552 1554 1534 1509 1503 1499 1497 1497 1499 1501 1502 1503 1503 1503 1503 1503 1504 1505 1506 1507 1509 1511 1512 1514 1514 1514 1512 1511 1510 1508 1507 1504
1565 1563 1554 1553 1554 1558 1562 1564 1574 1575 1575 1565 1549 1546 1518 1499 1495 1493 1493 1494 1495 1495 1496 1496 1496 1496 1496 1496 1497 1497 1498 1499 1501 1503 1505 1507 1507 1507 1506 1505 1503 1502 1500 1498
1563 1561 1552 1551 1551 1553 1556 1561 1560 1569 1568 1570 1554 1536 1514 1494 1491 1489 1489 1490 1489 1490 1490 1490 1490 1490 1490 1490 1490 1490 1491 1492 1493 1496 1498 1499 1500 1500 1499 1498 1497 1496 1494 1492
1555 1560 1552 1551 1552 1551 1552 1555 1565 1568 1570 1569 1554 1540 1520 1496 1492 1488 1486 1484 1484 1485 1485 1484 1484 1484 1483 1483 1484 1484 1484 1485 1487 1489 1490 1492 1493 1493 1492 1492 1491 1490 1488 1486
1552 1559 1555 1553 1553 1550 1554 1556 1556 1562 1565 1567 1560 1529 1499 1492 1486 1484 1480 1478 1478 1479 1479 1478 1478 1478 1477 1477 1477 1476 1476 1477 1479 1480 1482 1484 1485 1486 1485 1485 1485 1483 1482 1480
1551 1559 1560 1551 1544 1543 1546 1546 1552 1558 1555 1558 1558 1521 1488 1485 1481 1479 1476 1475 1475 1475 1474 1473 1472 1472 1471 1469 1469 1468 1468 1469 1470 1473 1475 1476 1478 1478 1478 1478 1478 1477 1475 1473
1551 1558 1560 1550 1548 1545 1544 1542 1543 1544 1548 1553 1551 1513 1483 1480 1476 1474 1474 1472 1471 1470 1469 1468 1466 1465 1463 1462 1461 1461 1461 1461 1463 1465 1467 1468 1470 1470 1471 1472 1472 1471 1469 1467
1548 1554 1556 1550 1542 1538 1539 1537 1537 1540 1544 1540 1526 1501 1482 1476 1474 1472 1471 1469 1467 1465 1463 1462 1460 1458 1457 1455 1454 1453 1453 1454 1455 1457 1458 1460 1461 1463 1464 1465 1465 1464 1463 1461
1547 1551 1548 1541 1536 1536 1534 1531 1530 1530 1523 1520 1501 1493 1475 1466 1468 1467 1466 1464 1461 1459 1457 1455 1454 1452 1450 1448 1446 1445 1445 1445 1447 1448 1449 1451 1454 1457 1458 1458 1458 1458 1457 1455
1546 1548 1545 1539 1531 1530 1529 1521 1516 1513 1510 1504 1493 1481 1464 1462 1464 1462 1460 1458 1455 1453 1451 1449 1448 1446 1443 1441 1439 1437 1436 1436 1437 1438 1440 1443 1446 1449 1450 1451 1452 1451 1450 1449
1544 1547 1546 1541 1531 1526 1523 1506 1499 1499 1495 1493 1487 1470 1459 1460 1458 1457 1454 1452 1450 1448 1446 1444 1442 1440 1437 1434 1432 1430 1428 1428 1428 1429 1431 1435 1438 1440 1442 1444 1444 1444 1444 1443
1537 1540 1542 1542 1531 1530 1498 1487 1487 1487 1480 1479 1472 1462 1457 1455 1454 1452 1450 1448 1446 1444 1443 1440 1438 1434 1431 1428 1425 1423 1421 1419 1419 1420 1422 1426 1429 1432 1434 1436 1437 1438 1437 1436
1527 1531 1536 1540 1535 1514 1497 1485 1482 1483 1476 1466 1463 1456 1452 1453 1453 1447 1445 1444 1443 1442 1440 1437 1433 1429 1425 1421 1418 1415 1412 1410 1410 1410 1413 1416 1420 1423 1426 1428 1430 1431 1431 1430
1527 1527 1533 1536 1534 1518 1489 1479 1476 1478 1477 1458 1456 1454 1452 1454 1457 1448 1444 1443 1441 1438 1435 1431 1426 1422 1418 1414 1410 1406 1403 1401 1399 1400 1403 1408 1412 1416 1419 1421 1424 1425 1425 1424
1529 1530 1531 1528 1524 1501 1483 1477 1478 1483 1470 1457 1454 1453 1452 1453 1450 1445 1442 1439 1436 1432 1428 1424 1419 1414 1410 1407 1402 1398 1394 1391 1392 1394 1396 1400 1403 1407 1411 1414 1417 1418 1418 1418
1516 1523 1525 1522 1521 1501 1474 1476 1476 1466 1458 1456 1453 1451 1450 1447 1443 1440 1436 1432 1428 1424 1420 1416 1411 1406 1402 1398 1393 1388 1384 1384 1385 1385 1388 1391 1395 1400 1403 1406 1409 1410 1411 1411
1505 1500 1498 1496 1485 1473 1470 1468 1465 1463 1459 1455 1452 1449 1447 1442 1437 1433 1428 1424 1420 1417 1412 1408 1402 1397 1393 1389 1384 1379 1376 1376 1375 1376 1378 1382 1386 1391 1394 1398 1401 1403 1404 1404
1493 1489 1490 1484 1473 1468 1465 1463 1461 1459 1455 1451 1449 1445 1442 1436 1431 1426 1421 1416 1412 1408 1404 1399 1394 1388 1384 1380 1375 1371 1369 1367 1367 1367 1369 1372 1376 1380 1385 1389 1392 1395 1397 1398
1485 1484 1480 1472 1466 1463 1458 1458 1455 1452 1450 1446 1442 1439 1434 1429 1424 1419 1414 1409 1405 1400 1396 1391 1386 1380 1375 1371 1366 1362 1360 1358 1357 1358 1361 1364 1367 1372 1376 1380 1384 1387 1390 1392
1475 1475 1472 1458 1458 1456 1450 1451 1450 1445 1442 1438 1435 1430 1427 1423 1417 1412 1407 1402 1398 1393 1388 1383 1377 1372 1366 1362 1357 1354 1351 1349 1348 1349 1351 1355 1359 1364 1368 1373 1377 1380 1384 1385